This is the latest recevied weather packets stored in our database for station/object OE-11140. If no packets are shown the sender has not sent any weather packets the latest 10 day(s).
| Time | Temp. | Humidity | Pressure | Rain* | Wind** | Luminosity | Snow |
|---|---|---|---|---|---|---|---|
| 1788099088 | 27.22° C | 42% | 1011.4 hPa | 0 mm | - | 590 W/m² | - |
| 1788098716 | 27.78° C | 41% | 1011.5 hPa | 0 mm | - | 623 W/m² | - |
| 1788098115 | 27.78° C | 43% | 1011.6 hPa | 0 mm | - | 643 W/m² | - |
| 1788097289 | 27.22° C | 41% | 1011.7 hPa | 0 mm | - | 643 W/m² | - |
| 1788096916 | 27.22° C | 40% | 1011.8 hPa | 0 mm | - | 656 W/m² | - |
| 1788096315 | 27.22° C | 40% | 1011.8 hPa | 0 mm | - | 689 W/m² | - |
| 1788095489 | 27.22° C | 40% | 1012 hPa | 0 mm | - | 669 W/m² | - |
| 1788095116 | 27.22° C | 43% | 1012 hPa | 0 mm | - | 722 W/m² | - |
| 1788094516 | 27.22° C | 41% | 1012.1 hPa | 0 mm | - | 755 W/m² | - |
| 1788093689 | 27.22° C | 38% | 1012.4 hPa | 0 mm | - | 676 W/m² | - |
| 1788093316 | 26.67° C | 38% | 1012.4 hPa | 0 mm | - | 656 W/m² | - |
| 1788092716 | 26.67° C | 39% | 1012.7 hPa | 0 mm | - | 696 W/m² | - |
| 1788091888 | 26.67° C | 41% | 1012.7 hPa | 0 mm | - | 762 W/m² | - |
| 1788091516 | 26.67° C | 40% | 1012.8 hPa | 0 mm | - | 762 W/m² | - |
| 1788090916 | 26.67° C | 41% | 1012.9 hPa | 0 mm | - | 769 W/m² | - |
| 1788090088 | 26.11° C | 41% | 1013 hPa | 0 mm | - | 775 W/m² | - |
| 1788089715 | 26.11° C | 42% | 1013.2 hPa | 0 mm | - | 775 W/m² | - |
| 1788089116 | 26.11° C | 42% | 1013.2 hPa | 0 mm | - | 775 W/m² | - |
| 1788088289 | 26.11° C | 43% | 1013.5 hPa | 0 mm | - | 775 W/m² | - |
| 1788087916 | 25.56° C | 41% | 1013.7 hPa | 0 mm | - | 769 W/m² | - |
| 1788087316 | 25.56° C | 42% | 1014 hPa | 0 mm | - | 762 W/m² | - |
| 1788086489 | 25° C | 43% | 1014 hPa | 0 mm | - | 749 W/m² | - |
| 1788086116 | 25° C | 44% | 1014.3 hPa | 0 mm | - | 755 W/m² | - |
| 1788085516 | 25° C | 46% | 1014.5 hPa | 0 mm | - | 722 W/m² | - |
| 1788084689 | 25° C | 48% | 1014.4 hPa | 0 mm | - | 736 W/m² | - |
* Rain latest hour (hover to see other rain measurements)
** Current wind speed in m/s (hover to see current wind gust speed)